• In Österreich
  • Länderverzeichnis
  • Für 7 Tage
  • Wassertemperatur
  • Satellitenkarten
  • Wetterkarte
  • News
  • Widgets
  • user-avatar
    Anmelden

    Stündliche Wetter Elzbieciny

    Heute, 16 Juli, Montag

    Zeit Temperatur Niederschläge Wind Luftdruck Luftfeuchtigkeit
    00:00 +17°C° 0 mm 2 m/S 753 mmHg 88%
    01:00 +16°C° 0 mm 2 m/S 753 mmHg 91%
    02:00 +16°C° 0 mm 2 m/S 753 mmHg 92%
    03:00 +16°C° 0 mm 2 m/S 753 mmHg 92%
    04:00 +15°C° 0 mm 1 m/S 753 mmHg 93%
    05:00 +16°C° 0 mm 2 m/S 753 mmHg 87%
    06:00 +18°C° 0 mm 2 m/S 752 mmHg 81%
    07:00 +19°C° 0 mm 2 m/S 752 mmHg 75%
    08:00 +21°C° 0 mm 2 m/S 752 mmHg 67%
    09:00 +24°C° 0 mm 2 m/S 752 mmHg 60%
    10:00 +25°C° 0 mm 3 m/S 752 mmHg 52%
    11:00 +26°C° 0 mm 3 m/S 751 mmHg 49%
    12:00 +28°C° 0 mm 3 m/S 751 mmHg 46%
    13:00 +29°C° 0 mm 3 m/S 751 mmHg 43%
    14:00 +28°C° 0,1 mm 3 m/S 750 mmHg 45%
    15:00 +28°C° 0,1 mm 3 m/S 750 mmHg 47%
    16:00 +28°C° 0,1 mm 3 m/S 750 mmHg 50%
    17:00 +26°C° 0,3 mm 3 m/S 750 mmHg 59%
    18:00 +25°C° 0,3 mm 3 m/S 749 mmHg 68%
    19:00 +22°C° 0,3 mm 3 m/S 749 mmHg 77%
    20:00 +21°C° 0,1 mm 2 m/S 749 mmHg 81%
    21:00 +20°C° 0,1 mm 2 m/S 749 mmHg 85%
    22:00 +19°C° 0,1 mm 2 m/S 749 mmHg 89%
    23:00 +19°C° 0,3 mm 2 m/S 749 mmHg 90%

    Morgen, 17 Juli, Dienstag

    Zeit Temperatur Niederschläge Wind Luftdruck Luftfeuchtigkeit
    00:00 +19°C° 0,3 mm 3 m/S 749 mmHg 91%
    01:00 +19°C° 0,3 mm 3 m/S 749 mmHg 92%
    02:00 +18°C° 1,2 mm 4 m/S 748 mmHg 92%
    03:00 +18°C° 1,2 mm 4 m/S 748 mmHg 92%
    04:00 +18°C° 1,2 mm 4 m/S 748 mmHg 92%
    05:00 +17°C° 1,8 mm 5 m/S 748 mmHg 92%
    06:00 +17°C° 1,8 mm 5 m/S 747 mmHg 93%
    07:00 +17°C° 1,8 mm 5 m/S 747 mmHg 93%
    08:00 +17°C° 1,7 mm 5 m/S 747 mmHg 93%
    09:00 +17°C° 1,7 mm 5 m/S 747 mmHg 93%
    10:00 +17°C° 1,7 mm 5 m/S 747 mmHg 93%
    11:00 +19°C° 0,7 mm 5 m/S 747 mmHg 92%
    12:00 +19°C° 0,7 mm 5 m/S 747 mmHg 92%
    13:00 +19°C° 0,7 mm 5 m/S 747 mmHg 91%
    14:00 +20°C° 0,3 mm 5 m/S 747 mmHg 90%
    15:00 +20°C° 0,3 mm 6 m/S 747 mmHg 89%
    16:00 +20°C° 0,3 mm 6 m/S 747 mmHg 88%
    17:00 +20°C° 0,2 mm 5 m/S 747 mmHg 89%
    18:00 +20°C° 0,2 mm 5 m/S 747 mmHg 90%
    19:00 +20°C° 0,2 mm 5 m/S 747 mmHg 91%
    20:00 +19°C° 0,1 mm 5 m/S 748 mmHg 93%
    21:00 +19°C° 0,1 mm 4 m/S 748 mmHg 94%
    22:00 +19°C° 0,1 mm 4 m/S 748 mmHg 95%
    23:00 +19°C° 0,2 mm 4 m/S 748 mmHg 95%

    übermorgen, 18 Juli, Mittwoch

    Zeit Temperatur Niederschläge Wind Luftdruck Luftfeuchtigkeit
    00:00 +19°C° 0,2 mm 4 m/S 748 mmHg 96%
    01:00 +19°C° 0,2 mm 4 m/S 748 mmHg 96%
    02:00 +18°C° 0,1 mm 4 m/S 748 mmHg 96%
    03:00 +17°C° 0,1 mm 5 m/S 748 mmHg 95%
    04:00 +17°C° 0,1 mm 5 m/S 748 mmHg 95%
    05:00 +19°C° 0,6 mm 5 m/S 748 mmHg 95%
    06:00 +19°C° 0,6 mm 5 m/S 748 mmHg 94%
    07:00 +19°C° 0,6 mm 5 m/S 748 mmHg 94%
    08:00 +19°C° 0,7 mm 5 m/S 748 mmHg 93%
    09:00 +19°C° 0,7 mm 5 m/S 749 mmHg 92%
    10:00 +20°C° 0,7 mm 6 m/S 749 mmHg 91%
    11:00 +20°C° 0,3 mm 6 m/S 749 mmHg 90%
    12:00 +20°C° 0,3 mm 6 m/S 749 mmHg 88%
    13:00 +21°C° 0,3 mm 6 m/S 749 mmHg 86%
    14:00 +21°C° 0,2 mm 6 m/S 749 mmHg 84%
    15:00 +21°C° 0,2 mm 6 m/S 750 mmHg 83%
    16:00 +21°C° 0,2 mm 6 m/S 750 mmHg 81%
    17:00 +21°C° 0,1 mm 5 m/S 750 mmHg 83%
    18:00 +20°C° 0,1 mm 5 m/S 750 mmHg 85%
    19:00 +20°C° 0,1 mm 4 m/S 750 mmHg 86%
    20:00 +19°C° 0,1 mm 4 m/S 751 mmHg 88%
    21:00 +19°C° 0,1 mm 4 m/S 751 mmHg 90%
    22:00 +18°C° 0,1 mm 3 m/S 751 mmHg 91%
    23:00 +18°C° 0,3 mm 3 m/S 751 mmHg 93%

    19 Juli, Donnerstag

    Zeit Temperatur Niederschläge Wind Luftdruck Luftfeuchtigkeit
    00:00 +18°C° 0,3 mm 3 m/S 751 mmHg 94%
    01:00 +18°C° 0,3 mm 3 m/S 751 mmHg 95%
    02:00 +18°C° 0,2 mm 3 m/S 751 mmHg 95%
    03:00 +17°C° 0,2 mm 3 m/S 751 mmHg 95%
    04:00 +17°C° 0,2 mm 3 m/S 751 mmHg 95%
    05:00 +18°C° 0,2 mm 4 m/S 751 mmHg 93%
    06:00 +18°C° 0,2 mm 4 m/S 752 mmHg 90%
    07:00 +19°C° 0,2 mm 4 m/S 752 mmHg 88%
    08:00 +20°C° 0,2 mm 4 m/S 752 mmHg 83%
    09:00 +21°C° 0,2 mm 4 m/S 752 mmHg 77%
    10:00 +22°C° 0,2 mm 4 m/S 752 mmHg 72%
    11:00 +23°C° 0,1 mm 5 m/S 752 mmHg 69%
    12:00 +25°C° 0,1 mm 5 m/S 752 mmHg 66%
    13:00 +26°C° 0,1 mm 5 m/S 752 mmHg 64%
    14:00 +26°C° 0 mm 5 m/S 752 mmHg 63%
    15:00 +26°C° 0 mm 5 m/S 752 mmHg 62%
    16:00 +26°C° 0 mm 5 m/S 752 mmHg 61%
    17:00 +25°C° 0 mm 4 m/S 752 mmHg 66%
    18:00 +25°C° 0 mm 4 m/S 752 mmHg 71%
    19:00 +24°C° 0 mm 3 m/S 752 mmHg 76%
    20:00 +21°C° 0 mm 3 m/S 752 mmHg 81%
    21:00 +20°C° 0 mm 3 m/S 752 mmHg 86%
    22:00 +19°C° 0 mm 2 m/S 752 mmHg 91%
    23:00 +18°C° 0 mm 2 m/S 752 mmHg 91%

    20 Juli, Freitag

    Zeit Temperatur Niederschläge Wind Luftdruck Luftfeuchtigkeit
    00:00 +18°C° 0 mm 2 m/S 752 mmHg 92%
    01:00 +18°C° 0 mm 2 m/S 752 mmHg 93%
    02:00 +17°C° 0 mm 2 m/S 752 mmHg 93%
    03:00 +17°C° 0 mm 2 m/S 752 mmHg 93%
    04:00 +17°C° 0 mm 2 m/S 752 mmHg 93%
    05:00 +18°C° 0 mm 2 m/S 752 mmHg 88%
    06:00 +19°C° 0 mm 2 m/S 752 mmHg 82%
    07:00 +20°C° 0 mm 3 m/S 752 mmHg 77%
    08:00 +22°C° 0 mm 3 m/S 752 mmHg 70%
    09:00 +24°C° 0 mm 3 m/S 752 mmHg 62%
    10:00 +26°C° 0 mm 2 m/S 752 mmHg 54%
    11:00 +27°C° 0 mm 2 m/S 752 mmHg 51%
    12:00 +28°C° 0 mm 2 m/S 752 mmHg 48%
    13:00 +28°C° 0 mm 2 m/S 752 mmHg 44%
    14:00 +29°C° 0 mm 2 m/S 751 mmHg 44%
    15:00 +29°C° 0 mm 2 m/S 751 mmHg 43%
    16:00 +29°C° 0 mm 2 m/S 751 mmHg 42%
    17:00 +28°C° 0 mm 2 m/S 751 mmHg 48%
    18:00 +26°C° 0 mm 2 m/S 751 mmHg 54%
    19:00 +25°C° 0 mm 2 m/S 751 mmHg 59%
    20:00 +24°C° 0 mm 2 m/S 751 mmHg 64%
    21:00 +21°C° 0 mm 2 m/S 751 mmHg 68%
    22:00 +20°C° 0 mm 3 m/S 751 mmHg 73%
    23:00 +19°C° 0 mm 2 m/S 751 mmHg 74%

    21 Juli, Samstag

    Zeit Temperatur Niederschläge Wind Luftdruck Luftfeuchtigkeit
    00:00 +18°C° 0 mm 2 m/S 751 mmHg 76%
    01:00 +18°C° 0 mm 2 m/S 751 mmHg 77%
    02:00 +17°C° 0 mm 2 m/S 751 mmHg 79%
    03:00 +17°C° 0 mm 2 m/S 751 mmHg 80%
    04:00 +17°C° 0 mm 2 m/S 751 mmHg 82%
    05:00 +18°C° 0 mm 2 m/S 751 mmHg 79%
    06:00 +19°C° 0 mm 2 m/S 751 mmHg 76%
    07:00 +21°C° 0 mm 2 m/S 751 mmHg 73%
    08:00 +23°C° 0 mm 2 m/S 751 mmHg 68%
    09:00 +25°C° 0 mm 2 m/S 751 mmHg 62%
    10:00 +26°C° 0 mm 2 m/S 751 mmHg 57%
    11:00 +27°C° 0 mm 2 m/S 751 mmHg 53%
    12:00 +28°C° 0 mm 2 m/S 751 mmHg 49%
    13:00 +28°C° 0 mm 2 m/S 751 mmHg 45%
    14:00 +28°C° 0 mm 2 m/S 751 mmHg 45%
    15:00 +29°C° 0 mm 2 m/S 750 mmHg 44%
    16:00 +29°C° 0 mm 2 m/S 750 mmHg 44%
    17:00 +28°C° 0 mm 2 m/S 750 mmHg 48%
    18:00 +26°C° 0 mm 2 m/S 750 mmHg 53%
    19:00 +25°C° 0 mm 2 m/S 750 mmHg 58%
    20:00 +24°C° 0 mm 2 m/S 751 mmHg 60%
    21:00 +23°C° 0 mm 2 m/S 751 mmHg 63%
    22:00 +20°C° 0 mm 2 m/S 751 mmHg 65%
    23:00 +20°C° 0 mm 2 m/S 751 mmHg 67%
    Mehr zeigen